Regional Weather Roundup
Issued by NWS Jackson, KY

Home | Current Version | Previous Version | Graphics & Text | Print | Product List | Glossary On
Versions: 1 2 3 4 5 6 7 8 9 10 11 12 13 14 15 16 17 18 19 20 21 22 23 24 25 26 27 28 29 30 31 32 33 34 35 36 37 38 39 40 41 42 43 44 45 46 47 48 49 50
790
ASUS43 KJKL 271210
RWRJKL

EAST KENTUCKY HOURLY WEATHER ROUNDUP
NATIONAL WEATHER SERVICE JACKSON KY
800 AM EDT THU APR 27 2017

NOTE: "FAIR" INDICATES FEW OR NO CLOUDS BELOW 12,000 FEET WITH
NO SIGNIFICANT WEATHER AND/OR OBSTRUCTIONS TO VISIBILITY.

* THESE REPORTS ARE NOT UNDER NWS QUALITY CONTROL AND MAY NOT
  REPORT WEATHER SUCH AS PRECIPITATION AND FOG.

KYZ079-080-083-085-087-088-110-112-115-119-120-271300
...EASTERN KENTUCKY...

CITY           SKY/WX    TMP DP  RH WIND       PRES   REMARKS
JACKSON        LGT RAIN  64  55  72 VRB6      29.75R
6HR MIN TEMP:  64; 6HR MAX TEMP:  68; 6HR PCP: TRACE;

LONDON         LGT RAIN  64  56  75 S15G22    29.69F
6HR MIN TEMP:  62; 6HR MAX TEMP:  71; 6HR PCP:  0.18;

SOMERSET*      CLOUDY    63  55  77 S9        29.67S
MONTICELLO*    CLOUDY    64  58  80 SE7G17    29.68R
6HR MIN TEMP:  63; 6HR MAX TEMP:  72;

WILLIAMSBURG*  CLOUDY    63  61  94 S14G21    29.70F
MIDDLESBORO*   LGT RAIN  63  58  84 S6        29.73F
6HR MIN TEMP:  63; 6HR MAX TEMP:  72; 6HR PCP:  0.04;

HARLAN APT*    CLOUDY    61  55  82 E5        29.75F
PIKE CO APT*     N/A     65  55  70 S5        29.76R
BIG SANDY APT* CLOUDY    66  55  68 S6        29.75R
6HR MIN TEMP:  62; 6HR MAX TEMP:  73;

MOREHEAD APT*  CLOUDY    68  54  60 SE10G17   29.66R
$$

KYZ035-036-041-042-044-050-067-078-099-271300
...CENTRAL KENTUCKY...

CITY           SKY/WX    TMP DP  RH WIND       PRES   REMARKS
MT STERLING*   CLOUDY    68  55  64 SW15G24   29.66R
FLEMING/MASON* CLOUDY    67  56  69 S10       29.64R
DANVILLE*      CLOUDY    64  55  72 S13G26    29.65R
LEXINGTON      CLOUDY    68  57  68 S17G23    29.62R
6HR MIN TEMP:  64; 6HR MAX TEMP:  70; 6HR PCP: TRACE;

FRANKFORT      CLOUDY    64  57  78 S7        29.59R
6HR MIN TEMP:  62; 6HR MAX TEMP:  71; 6HR PCP:  0.01;

LOUISVILLE     LGT RAIN  63  60  90 S9G21     29.59F
6HR MIN TEMP:  62; 6HR MAX TEMP:  74; 6HR PCP:  0.31;

LEBANON*         N/A     64  59  82 S14G24    29.62R
GLASGOW*       LGT RAIN N/A N/A N/A SW10      29.64R
BOWLING GREEN  PTSUNNY   64  62  93 SW10      29.64R
6HR MIN TEMP:  61; 6HR MAX TEMP:  74; 6HR PCP:  0.37;

$$

KYZ091>093-OHZ055-061-077-WVZ005-015-034-035-042-271300
...SOUTHERN OHIO/WEST VIRGINIA...

CITY           SKY/WX    TMP DP  RH WIND       PRES   REMARKS
COVINGTON      LGT RAIN  63  55  75 S7        29.58R
COLUMBUS       CLOUDY    70  55  59 SE10      29.60F
DAYTON         CLOUDY    64  52  64 S7        29.54F
WILMINGTON     CLOUDY    66  58  75 SW13      29.56F
HUNTINGTON     CLOUDY    60  55  83 E7        29.68S
CHARLESTON     MOSUNNY   59  56  89 CALM      29.74R
PINEVILLE*     MOSUNNY   55  54  97 MISG      29.84R
BECKLEY        SUNNY     62  54  74 S7        29.81R
BLUEFIELD      CLOUDY    62  50  64 SW9       29.84R
LOGAN CO APT*    N/A     68  55  64 VRB3      29.76R
$$

VAZ002-007-008-TNZ017-027-036-066-071-271300
...SOUTHWEST VIRGINIA/EAST TENNESSEE...

CITY           SKY/WX    TMP DP  RH WIND       PRES   REMARKS
WISE*          CLOUDY    63  52  67 S13G22    29.84R
JONESVILLE*      N/A    N/A N/A N/A CALM      29.83R
ABINGDON*      MOSUNNY   62  56  82 W3        29.85R
BRISTOL        CLOUDY    61  56  83 CALM      29.82R
MORRISTOWN*    PTSUNNY   61  57  88 SE6       29.79R
SEVIERVILLE*   PTSUNNY   61  55  82 VRB5      29.76R
KNOXVILLE      LGT RAIN  63  58  83 S6        29.76F
LAFOLLETTE*    CLOUDY    63  59  88 SE5       29.77R
OAK RIDGE      LGT RAIN  63  60  90 CALM      29.76R
CROSSVILLE     CLOUDY    60  58  92 VRB7G20   29.73R
NASHVILLE      PTSUNNY   64  61  90 SW8       29.68R
$$

...KEY TO REMARKS...
VSB - VISIBILITY IN MILES
WCI - WIND CHILL INDEX
HX  - HEAT INDEX

$$




USA.gov is the U.S. government's official web portal to all federal, state and local government web resources and services.